FENGMANIU-1 (FMN-1) (43192 NORAD) Tracking and Keplerian Element Data

This shows tracking and keplerian element data for the satellite.

Feedback or suggestion? Click here.




ElementValue
Catalog43192
NameFENGMANIU-1 (FMN-1)
Epoch Orbit25911
Epoch Day270.19464529
Epoch Year2022
RAAN58.4932
Inclination97.547
Eccentricity0.0009752
Argument of Perigee23.6312
Mean Anonmoly28.847
Mean Motion15.43670079
Decay Rate0.00039299
L11 43192U 18015A 22270.19464529 .00039299 00000+0 86921-3 0 9997
L22 43192 97.5470 58.4932 0009752 23.6312 28.8470 15.43670079259113

Live tracking and technical data element details for FENGMANIU-1 (FMN-1) (NORAD 43192). FENGMANIU-1 (FMN-1) can be tracked NOW for your location showing map with azimuth and elevation plus other details from your city location.

Track the satellite on the map from your city or location and see movement details for azimuth, elevation, latitude, longitude, range, height, and movement on the map or in text.







IsCatalogInMostPopularTable: catalog: 43192, numindb: 750
Update: records affected: 1



GetName: 43192 FENGMANIU-1 (FMN-1)

Hit Count: updated at: Wed, 05 Oct 2022 08:55:41 GMT